Location: Lake Sonoma
(38.7200°N, 123.0564°W)
Time: 20:02:48
(UTC-08:00)

Amateur Radio Satellites - All Passes

Search period start: 23 November 2017 19:32
Search period end: 24 November 2017 19:32
Location: Lake Sonoma, 38.7200°N, 123.0564°W

Satellite Date Start Highest point End Downlink Frequencies (MHz)
Time Altitude Azimuth
AO-73 23 Nov 19:32:49 19:37:03 64° 76° (ENE) 19:41:14 145.935
ISS 23 Nov 19:38:53 19:42:06 59° 138° (SE) 19:45:20 437.550
Oscar 11 23 Nov 19:45:50 19:50:03 59° 75° (ENE) 19:54:17 .
CUBEBUG 2 23 Nov 19:46:33 19:50:10 23° 265° (W) 19:53:44 437.445
RS-15 23 Nov 20:15:52 20:27:17 42° 317° (NW) 20:38:39 29.354- 29.394
AAUSAT CUBESAT 2 23 Nov 20:18:24 20:21:28 20° 266° (W) 20:24:33 437.432
SO-50 23 Nov 20:20:08 20:23:54 27° 113° (ESE) 20:27:42 436.795
ZACube-1 23 Nov 20:20:18 20:24:08 31° 263° (W) 20:27:54 437.345
DELFI C3 23 Nov 20:20:28 20:23:49 27° 70° (ENE) 20:27:12 145.870
nSIGHT-1 23 Nov 20:21:41 20:24:43 38° 327° (NNW) 20:27:46 .
HO-68 23 Nov 20:25:36 20:28:42 13° 271° (W) 20:31:49 435.675
UWE-3 23 Nov 20:39:54 20:40:59 11° 269° (W) 20:42:04 435.000/436.395/437.385
EO-88 23 Nov 20:40:29 20:43:11 20° 70° (ENE) 20:45:55 145.990 - 145.960
NO-84 23 Nov 20:42:00 20:45:49 32° 35° (NE) 20:49:41 435.350 FM
Max Valier Satellite 23 Nov 20:48:28 20:51:50 37° 73° (ENE) 20:55:14 145.860
UNISAT 6 23 Nov 20:48:28 20:48:55 10° 90° (E) 20:49:23 437.425
TIGRISAT 23 Nov 20:52:19 20:52:25 10° 90° (E) 20:52:32 435.000
FO-29 23 Nov 20:54:59 21:02:52 86° 103° (ESE) 21:10:06 435.910
STRAND 1 23 Nov 21:01:52 21:05:28 20° 296° (WNW) 21:09:02 437.568
ISS 23 Nov 21:16:19 21:18:49 20° 335° (NNW) 21:21:18 437.550
Oscar 11 23 Nov 21:25:36 21:26:32 11° 270° (W) 21:27:28 .
DELFI C3 23 Nov 21:55:32 21:58:31 20° 266° (W) 22:01:31 145.870
SO-50 23 Nov 22:00:18 22:04:15 30° 310° (NW) 22:08:14 436.795
nSIGHT-1 23 Nov 22:00:40 22:01:39 11° 346° (NNW) 22:02:39 .
O/OREOS (USA 219) 23 Nov 22:11:28 22:15:31 31° 62° (ENE) 22:19:32 437.305
EO-88 23 Nov 22:13:51 22:16:41 22° 264° (W) 22:19:34 145.990 - 145.960
NO-84 23 Nov 22:19:18 22:23:13 37° 232° (SW) 22:27:07 435.350 FM
UNISAT 6 23 Nov 22:21:48 22:26:00 60° 286° (WNW) 22:30:11 437.425
PRISM 23 Nov 22:24:21 22:28:20 43° 99° (E) 22:32:17 437.425
Max Valier Satellite 23 Nov 22:24:23 22:25:48 12° 268° (W) 22:27:13 145.860
TIGRISAT 23 Nov 22:25:17 22:29:29 60° 285° (WNW) 22:33:39 435.000
LO-87 23 Nov 22:27:23 22:30:55 55° 75° (ENE) 22:34:27 145.935 - 145.965
RS-15 23 Nov 22:36:24 22:44:32 19° 350° (N) 22:52:30 29.354- 29.394
FO-29 23 Nov 22:41:33 22:46:47 20° 302° (WNW) 22:51:50 435.910
AIST 2D 23 Nov 22:50:30 22:53:29 25° 96° (E) 22:56:28 435.315
ESTCUBE 1 23 Nov 23:01:43 23:06:10 80° 257° (WSW) 23:10:41 437.505/2401.250
PCSat 23 Nov 23:02:41 23:07:40 39° 110° (ESE) 23:12:40 145.827
EO-79 23 Nov 23:08:27 23:10:40 14° 92° (E) 23:12:52 145.935-145.965
VELOX 1 23 Nov 23:09:50 23:12:57 19° 66° (ENE) 23:16:04 145.980
NANOSAT C BR1 23 Nov 23:09:55 23:11:43 13° 92° (E) 23:13:32 145.865
POLYITAN 1 23 Nov 23:23:48 23:27:01 21° 95° (E) 23:30:13 437.675
SPROUT 23 Nov 23:41:35 23:45:50 65° 74° (ENE) 23:50:04 437.525
QB50P2 23 Nov 23:46:45 23:50:47 44° 99° (E) 23:54:48 145.880/145.840
DX 1 23 Nov 23:47:41 23:48:38 11° 62° (ENE) 23:49:35 434.975-435.025
O/OREOS (USA 219) 23 Nov 23:51:11 23:54:44 23° 258° (WSW) 23:58:15 437.305
PRISM 24 Nov 00:00:52 00:03:12 15° 295° (WNW) 00:05:32 437.425
UKube-1 24 Nov 00:21:13 00:23:47 16° 65° (ENE) 00:26:20 .
AIST 2D 24 Nov 00:24:06 00:26:26 17° 291° (WNW) 00:28:46 435.315
DUCHIFAT 1 24 Nov 00:31:05 00:35:15 79° 283° (WNW) 00:39:24 145.980
ISS 24 Nov 00:32:36 00:34:01 12° 16° (NNE) 00:35:26 437.550
Oscar 19 24 Nov 00:37:53 00:41:00 16° 92° (E) 00:44:07 437.125/150
EO-79 24 Nov 00:42:38 00:46:37 43° 287° (WNW) 00:50:34 145.935-145.965
NANOSAT C BR1 24 Nov 00:43:39 00:47:40 48° 287° (WNW) 00:51:41 145.865
VELOX 1 24 Nov 00:44:57 00:49:05 38° 262° (W) 00:53:15 145.980
PCSat 24 Nov 00:46:27 00:51:07 29° 308° (NW) 00:55:50 145.827
AO-91 24 Nov 00:48:10 00:50:45 15° 90° (E) 00:53:10 145.960
BEESAT 3 24 Nov 00:49:45 00:51:57 14° 109° (ESE) 00:54:09 437.485
50 SAT 24 Nov 00:52:04 00:55:14 58° 75° (ENE) 00:58:26 437.505
RS-15 24 Nov 00:53:45 01:03:10 25° 26° (NNE) 01:12:13 29.354- 29.394
POLYITAN 1 24 Nov 00:59:10 01:02:46 28° 290° (WNW) 01:06:22 437.675
BUGSAT 1 24 Nov 01:10:58 01:14:59 66° 102° (ESE) 01:18:56 437.445
nSIGHT-1 24 Nov 01:13:47 01:16:20 21° 26° (NNE) 01:18:51 .
DX 1 24 Nov 01:19:50 01:24:11 71° 258° (WSW) 01:28:34 434.975-435.025
QB50P2 24 Nov 01:23:50 01:26:10 15° 295° (WNW) 01:28:30 145.880/145.840
Gurwin Techsat 1B 24 Nov 01:27:24 01:32:16 35° 97° (E) 01:37:05 435.225
UKube-1 24 Nov 01:55:15 01:59:23 45° 260° (W) 02:03:34 .
AO-7 24 Nov 02:00:44 02:04:00 13° 89° (E) 02:07:16 .
M-CUBED/EXP-1 PRIME 24 Nov 02:01:31 02:03:54 14° 96° (E) 02:06:16 437.505
BEESAT 2 24 Nov 02:07:34 02:11:03 29° 113° (ESE) 02:14:34 435.950
ISS 24 Nov 02:07:58 02:11:08 46° 34° (NE) 02:14:18 437.550
Oscar 19 24 Nov 02:15:35 02:20:38 57° 287° (WNW) 02:25:41 437.125/150
MOZHAYETS 4 24 Nov 02:21:42 02:26:09 56° 74° (ENE) 02:30:37
AO-91 24 Nov 02:23:23 02:27:29 38° 289° (WNW) 02:31:10 145.960
BEESAT 3 24 Nov 02:25:15 02:29:04 44° 305° (NW) 02:32:56 437.485
BEESAT 24 Nov 02:28:13 02:32:49 51° 72° (ENE) 02:37:27 436.000
ITAMSAT 1 24 Nov 02:38:31 02:40:23 12° 90° (E) 02:42:15 435.822/435.867
ITUPSAT 1 24 Nov 02:40:01 02:44:46 67° 74° (ENE) 02:49:31 437.325
CUBESAT XI-V 24 Nov 02:43:05 02:46:32 21° 67° (ENE) 02:50:00 437.345
nSIGHT-1 24 Nov 02:49:37 02:52:43 47° 223° (SW) 02:55:46 .
RS-15 24 Nov 03:06:29 03:18:22 70° 55° (NE) 03:29:32 29.354- 29.394
Gurwin Techsat 1B 24 Nov 03:07:34 03:12:02 28° 293° (WNW) 03:16:28 435.225
AO-85 24 Nov 03:16:14 03:20:02 58° 118° (ESE) 03:23:58 145.980
M-CUBED/EXP-1 PRIME 24 Nov 03:33:58 03:38:30 59° 291° (WNW) 03:43:04 437.505
ISS 24 Nov 03:45:12 03:47:20 16° 230° (SW) 03:49:28 437.550
BEESAT 2 24 Nov 03:45:27 03:48:45 24° 310° (NW) 03:52:05 435.950
AO-7 24 Nov 03:49:34 03:57:57 76° 107° (ESE) 04:06:18 .
KKS-1 24 Nov 03:50:20 03:53:58 25° 68° (ENE) 03:57:38 437.445
MOZHAYETS 4 24 Nov 04:01:35 04:03:37 13° 269° (W) 04:05:41
STARS 24 Nov 04:06:18 04:08:45 15° 64° (ENE) 04:11:11 437.465
BEESAT 24 Nov 04:08:05 04:10:51 15° 268° (W) 04:13:38 436.000
ITAMSAT 1 24 Nov 04:15:09 04:20:22 75° 286° (WNW) 04:25:31 435.822/435.867
CUBESAT XI-V 24 Nov 04:19:27 04:23:39 35° 263° (W) 04:27:54 437.345
ITUPSAT 1 24 Nov 04:21:23 04:23:00 12° 269° (W) 04:24:37 437.325
YUBILEINY 24 Nov 04:44:52 04:53:04 47° 88° (E) 05:01:21 435.215
SO-50 24 Nov 04:52:13 04:55:44 21° 46° (NE) 04:59:17 436.795
AO-85 24 Nov 04:58:45 05:00:50 14° 317° (NW) 05:02:57 145.980
DOVE 4 24 Nov 05:09:13 05:14:21 73° 101° (ESE) 05:19:09 437.250
RS-15 24 Nov 05:20:09 05:29:44 32° 257° (WSW) 05:38:58 29.354- 29.394
KKS-1 24 Nov 05:26:30 05:30:22 29° 263° (W) 05:34:17 437.445
XW-2D 24 Nov 05:39:39 05:42:53 26° 96° (E) 05:46:08 145.860 - 145.880
STARS 24 Nov 05:40:19 05:44:37 51° 260° (W) 05:48:57 437.465
AO-7 24 Nov 05:43:33 05:49:53 25° 305° (NW) 05:56:14 .
XW-2B 24 Nov 05:54:20 05:57:55 38° 98° (E) 06:01:30 145.730 - 145.750
NUDT-PHONESAT 24 Nov 05:54:27 05:57:34 25° 96° (E) 06:00:41 437.300
HO-68 24 Nov 06:03:32 06:08:31 20° 92° (E) 06:13:27 435.675
CUTE 1.7 + AOD 2 24 Nov 06:07:03 06:08:58 13° 91° (E) 06:10:51 437.475
CUTE-I 24 Nov 06:11:33 06:16:44 48° 99° (E) 06:21:51 437.470
XW-2C 24 Nov 06:19:59 06:23:48 87° 98° (E) 06:27:38 145.795 - 145.815
LilacSat-2 24 Nov 06:26:21 06:30:12 71° 283° (WNW) 06:34:02 437.200
XW-2F 24 Nov 06:27:23 06:31:13 81° 283° (WNW) 06:35:01 145.980 - 146.000
SEEDS 24 Nov 06:30:23 06:32:39 14° 92° (E) 06:34:55 437.485
SO-50 24 Nov 06:31:57 06:36:27 49° 243° (WSW) 06:40:59 436.795
STRAND 1 24 Nov 06:36:03 06:41:07 60° 73° (ENE) 06:46:12 437.568
YUBILEINY 24 Nov 06:42:07 06:49:59 36° 288° (WNW) 06:57:57 435.215
DOVE 4 24 Nov 06:48:56 06:51:15 13° 299° (WNW) 06:53:32 437.250
KAITUO 1B 24 Nov 06:49:17 06:52:59 54° 285° (WNW) 06:56:40 145.475/437.950
UWE-3 24 Nov 06:52:29 06:54:12 12° 91° (E) 06:55:55 435.000/436.395/437.385
FO-29 24 Nov 07:05:02 07:11:05 35° 64° (ENE) 07:17:44 435.910
XW-2D 24 Nov 07:14:06 07:16:53 19° 291° (WNW) 07:19:39 145.860 - 145.880
AO-73 24 Nov 07:23:33 07:25:25 13° 92° (E) 07:27:17 145.935
NUDT-PHONESAT 24 Nov 07:28:34 07:31:14 19° 291° (WNW) 07:33:54 437.300
XW-2B 24 Nov 07:29:44 07:31:44 14° 293° (WNW) 07:33:44 145.730 - 145.750
Oscar 11 24 Nov 07:36:12 07:37:57 12° 91° (E) 07:39:40 .
CUBEBUG 2 24 Nov 07:37:26 07:41:36 82° 101° (E) 07:45:45 437.445
CUTE 1.7 + AOD 2 24 Nov 07:40:54 07:45:03 50° 286° (WNW) 07:49:11 437.475
HO-68 24 Nov 07:49:39 07:56:48 71° 289° (WNW) 08:03:54 435.675
PCSat 24 Nov 07:51:52 07:56:22 26° 51° (NE) 08:00:50 145.827
CUTE-I 24 Nov 07:52:26 07:56:23 21° 296° (WNW) 08:00:20 437.470
XW-2A 24 Nov 07:54:50 07:58:12 68° 101° (ESE) 08:01:34 145.665 - 145.685
FALCONSAT 3 24 Nov 07:56:22 07:59:14 21° 158° (SSE) 08:02:06 435.103
AAUSAT CUBESAT 2 24 Nov 08:00:12 08:04:23 67° 101° (E) 08:08:32 437.432
SEEDS 24 Nov 08:04:28 08:08:32 44° 287° (WNW) 08:12:34 437.485
ZACube-1 24 Nov 08:09:01 08:13:05 51° 100° (E) 08:17:10 437.345
STRAND 1 24 Nov 08:17:49 08:20:39 15° 269° (W) 08:23:30 437.568
UWE-3 24 Nov 08:26:56 08:30:54 47° 286° (WNW) 08:34:54 435.000/436.395/437.385
FO-29 24 Nov 08:49:33 08:55:52 44° 264° (W) 09:02:56 435.910
AO-73 24 Nov 08:57:53 09:01:52 47° 286° (WNW) 09:05:53 145.935
Oscar 11 24 Nov 09:10:08 09:14:22 53° 286° (WNW) 09:18:35 .
PRISM 24 Nov 09:12:16 09:15:43 26° 69° (ENE) 09:19:10 437.425
UNISAT 6 24 Nov 09:18:32 09:23:06 85° 257° (WSW) 09:27:35 437.425
TIGRISAT 24 Nov 09:21:52 09:26:26 85° 261° (W) 09:30:54 435.000
DELFI C3 24 Nov 09:32:18 09:36:13 51° 100° (E) 09:40:04 145.870
FALCONSAT 3 24 Nov 09:34:23 09:37:56 46° 172° (S) 09:41:29 435.103
PCSat 24 Nov 09:34:47 09:39:57 45° 248° (WSW) 09:45:04 145.827
AAUSAT CUBESAT 2 24 Nov 09:38:47 09:39:14 10° 297° (WNW) 09:39:41 437.432
HO-68 24 Nov 09:40:14 09:43:15 13° 307° (NW) 09:46:16 435.675
EO-88 24 Nov 09:42:47 09:46:04 30° 97° (E) 09:49:18 145.990 - 145.960
ZACube-1 24 Nov 09:47:05 09:48:55 13° 295° (WNW) 09:50:45 437.345
Max Valier Satellite 24 Nov 09:52:40 09:56:20 64° 102° (ESE) 09:59:58 145.860
POLYITAN 1 24 Nov 10:15:54 10:18:12 14° 65° (ENE) 10:20:30 437.675
BEESAT 2 24 Nov 10:26:52 10:29:06 14° 45° (NE) 10:31:18 435.950
QB50P2 24 Nov 10:38:00 10:41:37 28° 70° (ENE) 10:45:15 145.880/145.840
BEESAT 3 24 Nov 10:42:46 10:46:42 63° 57° (ENE) 10:50:32 437.485
PRISM 24 Nov 10:47:36 10:50:54 23° 264° (W) 10:54:14 437.425
AIST 2D 24 Nov 10:55:27 10:58:51 57° 260° (W) 11:02:17 435.315
ESTCUBE 1 24 Nov 10:55:55 10:59:34 23° 95° (E) 11:03:12 437.505/2401.250
DELFI C3 24 Nov 11:09:03 11:10:27 12° 295° (WNW) 11:11:52 145.870
FALCONSAT 3 24 Nov 11:13:16 11:16:47 45° 188° (S) 11:20:20 435.103
EO-88 24 Nov 11:17:13 11:19:24 15° 292° (WNW) 11:21:36 145.990 - 145.960
DUCHIFAT 1 24 Nov 11:20:55 11:25:04 60° 75° (ENE) 11:29:13 145.980
LO-87 24 Nov 11:28:25 11:31:58 86° 102° (ESE) 11:35:28 145.935 - 145.965
SPROUT 24 Nov 11:30:29 11:32:03 12° 91° (E) 11:33:37 437.525
EO-79 24 Nov 11:32:54 11:37:08 73° 258° (WSW) 11:41:22 145.935-145.965
NANOSAT C BR1 24 Nov 11:33:35 11:37:49 82° 259° (W) 11:42:03 145.865
AO-91 24 Nov 11:42:44 11:46:07 17° 64° (ENE) 11:49:29 145.960
AO-85 24 Nov 11:47:36 11:52:01 38° 53° (NE) 11:56:44 145.980
POLYITAN 1 24 Nov 11:49:29 11:53:34 46° 261° (W) 11:57:39 437.675
Oscar 19 24 Nov 11:53:20 11:57:08 21° 65° (ENE) 12:00:56 437.125/150
BUGSAT 1 24 Nov 11:58:57 12:02:49 37° 72° (ENE) 12:06:39 437.445
BEESAT 2 24 Nov 12:03:13 12:07:11 59° 242° (WSW) 12:11:04 435.950
QB50P2 24 Nov 12:14:02 12:17:22 22° 265° (W) 12:20:42 145.880/145.840
O/OREOS (USA 219) 24 Nov 12:21:57 12:26:21 46° 106° (ESE) 12:30:46 437.305
ESTCUBE 1 24 Nov 12:32:22 12:36:20 30° 290° (WNW) 12:40:18 437.505/2401.250
VELOX 1 24 Nov 12:35:50 12:40:04 42° 99° (E) 12:44:16 145.980
Gurwin Techsat 1B 24 Nov 12:47:01 12:52:06 50° 72° (ENE) 12:57:15 435.225
M-CUBED/EXP-1 PRIME 24 Nov 12:47:08 12:48:12 11° 57° (ENE) 12:49:17 437.505
FALCONSAT 3 24 Nov 12:52:41 12:55:29 20° 202° (SSW) 12:58:16 435.103
AO-7 24 Nov 12:57:55 13:03:25 20° 52° (NE) 13:08:55 .
DUCHIFAT 1 24 Nov 13:00:49 13:01:04 10° 269° (W) 13:01:18 145.980
SPROUT 24 Nov 13:04:06 13:08:14 52° 286° (WNW) 13:12:20 437.525
DX 1 24 Nov 13:09:55 13:13:16 21° 95° (E) 13:16:36 434.975-435.025
AO-91 24 Nov 13:16:38 13:21:58 65° 259° (W) 13:27:20 145.960
AO-85 24 Nov 13:28:19 13:32:18 26° 248° (WSW) 13:36:29 145.980
Oscar 19 24 Nov 13:31:16 13:36:08 43° 261° (W) 13:41:01 437.125/150
NO-84 24 Nov 13:32:29 13:35:52 51° 131° (SE) 13:39:33 435.350 FM
BUGSAT 1 24 Nov 13:35:38 13:38:16 16° 267° (W) 13:40:53 437.445
50 SAT 24 Nov 13:42:10 13:45:20 58° 101° (E) 13:48:29 437.505
UKube-1 24 Nov 13:43:29 13:47:20 30° 97° (E) 13:51:08 .
ITAMSAT 1 24 Nov 13:54:26 13:57:55 18° 63° (ENE) 14:01:23 435.822/435.867
O/OREOS (USA 219) 24 Nov 14:02:54 14:06:00 18° 303° (WNW) 14:09:06 437.305
JUGNU 24 Nov 14:04:54 14:06:17 11° 175° (S) 14:07:39 437.505
VELOX 1 24 Nov 14:13:15 14:16:09 17° 295° (WNW) 14:19:02 145.980
M-CUBED/EXP-1 PRIME 24 Nov 14:18:28 14:22:00 54° 256° (WSW) 14:25:50 437.505
MOZHAYETS 4 24 Nov 14:19:24 14:21:50 14° 92° (E) 14:24:17
Gurwin Techsat 1B 24 Nov 14:28:35 14:32:17 19° 267° (W) 14:36:02 435.225
BEESAT 24 Nov 14:31:07 14:33:36 14° 92° (E) 14:36:04 436.000
ITUPSAT 1 24 Nov 14:42:45 14:46:05 19° 94° (E) 14:49:22 437.325
DX 1 24 Nov 14:45:35 14:49:28 31° 290° (WNW) 14:53:19 434.975-435.025
AO-7 24 Nov 14:46:46 14:55:04 89° 68° (ENE) 15:03:24 .
YUBILEINY 24 Nov 14:57:22 15:03:47 22° 66° (ENE) 15:10:08 435.215
NO-84 24 Nov 15:10:32 15:13:26 21° 330° (NNW) 15:16:32 435.350 FM
UKube-1 24 Nov 15:19:49 15:23:08 22° 293° (WNW) 15:26:27 .
ITAMSAT 1 24 Nov 15:31:47 15:36:54 55° 259° (W) 15:42:02 435.822/435.867
JUGNU 24 Nov 15:53:08 15:54:21 11° 186° (S) 15:55:33 437.505
MOZHAYETS 4 24 Nov 15:54:49 15:59:15 51° 287° (WNW) 16:03:40
BEESAT 24 Nov 16:07:02 16:11:40 55° 287° (WNW) 16:16:18 436.000
DOVE 4 24 Nov 16:12:08 16:17:08 62° 74° (ENE) 16:22:21 437.250
CUBESAT XI-V 24 Nov 16:16:33 16:21:12 61° 101° (E) 16:25:51 437.345
ITUPSAT 1 24 Nov 16:19:34 16:24:03 42° 289° (WNW) 16:28:30 437.325
XW-2D 24 Nov 16:21:35 16:22:37 11° 65° (ENE) 16:23:39 145.860 - 145.880
HO-68 24 Nov 16:33:14 16:36:39 14° 53° (NE) 16:40:05 435.675
XW-2B 24 Nov 16:35:12 16:37:29 16° 68° (ENE) 16:39:45 145.730 - 145.750
AO-7 24 Nov 16:43:45 16:48:44 17° 269° (W) 16:53:46 .
YUBILEINY 24 Nov 16:52:41 17:01:33 78° 266° (W) 17:10:20 435.215
XW-2C 24 Nov 16:59:51 17:03:10 31° 72° (ENE) 17:06:31 145.795 - 145.815
LilacSat-2 24 Nov 17:06:37 17:10:10 42° 74° (ENE) 17:13:45 437.200
XW-2F 24 Nov 17:06:40 17:10:03 35° 73° (ENE) 17:13:29 145.980 - 146.000
KKS-1 24 Nov 17:17:53 17:22:17 57° 101° (E) 17:26:39 437.445
RS-15 24 Nov 17:26:33 17:38:12 52° 110° (ESE) 17:49:49 29.354- 29.394
KAITUO 1B 24 Nov 17:27:21 17:30:54 50° 74° (ENE) 17:34:29 145.475/437.950
STARS 24 Nov 17:31:02 17:34:54 30° 97° (E) 17:38:44 437.465
CUTE-I 24 Nov 17:31:50 17:37:10 69° 74° (ENE) 17:42:31 437.470
SRMSAT 24 Nov 17:44:23 17:46:17 12° 179° (S) 17:48:12 437.500
DOVE 4 24 Nov 17:52:20 17:55:12 15° 271° (W) 17:58:08 437.250
XW-2D 24 Nov 17:52:44 17:56:19 47° 261° (W) 17:59:57 145.860 - 145.880
CUBESAT XI-V 24 Nov 17:55:40 17:58:02 14° 296° (WNW) 18:00:23 437.345
NUDT-PHONESAT 24 Nov 18:04:53 18:08:26 50° 261° (W) 18:12:00 437.300
XW-2B 24 Nov 18:08:01 18:11:22 31° 263° (W) 18:14:44 145.730 - 145.750
HO-68 24 Nov 18:16:00 18:23:10 76° 72° (ENE) 18:30:23 435.675
XW-2A 24 Nov 18:25:20 18:27:32 17° 69° (ENE) 18:29:44 145.665 - 145.685
CUTE 1.7 + AOD 2 24 Nov 18:31:33 18:35:44 88° 255° (WSW) 18:39:59 437.475
CUBEBUG 2 24 Nov 18:33:30 18:37:58 56° 74° (ENE) 18:42:18 437.445
XW-2C 24 Nov 18:35:14 18:37:25 15° 267° (W) 18:39:36 145.795 - 145.815
XW-2F 24 Nov 18:42:29 18:44:18 13° 268° (W) 18:46:06 145.980 - 146.000
LilacSat-2 24 Nov 18:43:25 18:44:39 11° 269° (W) 18:45:51 437.200
ISS 24 Nov 18:47:02 18:49:54 28° 133° (SE) 18:52:46 437.550
STRAND 1 24 Nov 18:48:36 18:52:35 23° 94° (E) 18:56:32 437.568
AAUSAT CUBESAT 2 24 Nov 18:48:44 18:52:28 35° 72° (ENE) 18:56:15 437.432
YUBILEINY 24 Nov 18:53:02 18:56:45 13° 285° (WNW) 19:00:29 435.215
SEEDS 24 Nov 18:54:02 18:58:11 81° 258° (WSW) 19:02:24 437.485
KKS-1 24 Nov 18:56:12 18:58:19 13° 297° (WNW) 19:00:25 437.445
ZACube-1 24 Nov 19:03:24 19:07:14 33° 72° (ENE) 19:11:02 437.345
STARS 24 Nov 19:07:37 19:11:02 23° 293° (WNW) 19:14:27 437.465
CUTE-I 24 Nov 19:15:00 19:17:40 14° 269° (W) 19:20:20 437.470
UWE-3 24 Nov 19:21:46 19:26:12 75° 258° (WSW) 19:30:31 435.000/436.395/437.385
nSIGHT-1 24 Nov 19:25:31 19:28:44 82° 324° (NW) 19:31:57 .
